HULIANWANG DIGUI-105

Last updated on Mon Dec 15 2025 00:02:13 GMT+0000 (Coordinated Universal Time)

1 66915U 25285A 25348.34006132 .00000059 00000+0 13269-3 0 9997 2 66915 50.0042 110.7555 0007947 288.0635 71.9403 14.03715738 1131
UTC large
Height (km)
Speed (km/s)
/
Latitude / Longitude
Inclination (degrees)
Orbital Period (minutes)
Azimuth
Elevation
Range (km)
Doppler Factor

Next 0 passes for location: London (51.5072 / 0.1276)

Sorry there are no passes over London.